Weather History for Harrison, AR

Change the Weather History Date:

Saturday, March 23, 2013

  Actual Average Record
Temperature  
Mean Temperature 37 °F 51 °F  
Max Temperature 40 °F 62 °F 93 °F (1929)
Min Temperature 34 °F 40 °F 20 °F (1968)
Degree Days  
Heating Degree Days 28 14  
Month to date heating degree days 505 404  
Since 1 July heating degree days 3409 3576  
Cooling Degree Days 0 0  
Month to date cooling degree days 6 0  
Year to date cooling degree days 7 0  
Moisture  
Dew Point 35 °F    
Average Humidity 96    
Maximum Humidity 100    
Minimum Humidity 92    
Precipitation  
Precipitation T in 0.12 in 1.51 in (1969)
Month to date precipitation 2.35 2.72  
Year to date precipitation 8.97 7.92  
Snow  
Snow 0.00 in 0.00 in T in (1974)
Month to date snowfall 1.8 2.0  
Since 1 July snowfall 4.6 11.2  
Snow Depth 0.00 in    
Sea Level Pressure  
Sea Level Pressure 29.87 in    
Wind  
Wind Speed 6 mph (ESE)    
Max Wind Speed 13 mph    
Max Gust Speed 16 mph    
Visibility 1 miles    
Events Fog , Rain    
T = Trace of Precipitation, MM = Missing Value Source: NWS Daily Summary

Daily Weather History Graph

Daily Weather History Graph

Search for Another Location

Airport:

Trip Planner

Search our weather history database for the weather conditions in past years. The results will help you decide how hot, cold, wet, or windy it might be!

Date:

Astronomy

Mar. 23, 2013 Rise Set
Actual Time 7:11 AM CDT 7:27 PM CDT
Civil Twilight 6:45 AM CDT 7:52 PM CDT
Nautical Twilight 6:15 AM CDT 8:23 PM CDT
Astronomical Twilight 5:45 AM CDT 8:53 PM CDT
Moon 3:59 PM CDT 4:42 AM CDT
Length of Visible Light 13h 07m
Length of Day
12h 15m
Waxing Gibbous, 85% of the Moon is Illuminated
Mar 23
Waxing Gibbous
Mar 27
Full
Apr 2
Last Quarter
Apr 10
New
Apr 18
First Quarter

Hourly Weather History & Observations

Time (CDT) Temp. Windchill Dew Point Humidity Pressure Visibility Wind Dir Wind Speed Gust Speed Precip Events Conditions
12:43 AM 33.8 °F 27.7 °F 33.8 °F 100% 29.93 in 0.2 mi ESE 6.9 mph - N/A Fog Fog
12:53 AM 34.0 °F 27.2 °F 34.0 °F 100% 29.95 in 0.2 mi ESE 8.1 mph - N/A Fog Fog
1:39 AM 33.8 °F 28.6 °F 33.8 °F 100% 29.91 in 0.5 mi East 5.8 mph - N/A Fog Fog
1:53 AM 34.0 °F 28.8 °F 34.0 °F 100% 29.94 in 0.5 mi ENE 5.8 mph - N/A Fog Fog
2:28 AM 33.8 °F 29.6 °F 33.8 °F 100% 29.90 in 0.8 mi East 4.6 mph - N/A   Mist
2:35 AM 33.8 °F 29.6 °F 33.8 °F 100% 29.90 in 1.0 mi ENE 4.6 mph - N/A   Overcast
2:53 AM 34.0 °F 31.0 °F 34.0 °F 100% 29.92 in 1.2 mi ENE 3.5 mph - N/A   Overcast
3:53 AM 34.0 °F 31.0 °F 34.0 °F 100% 29.92 in 1.2 mi East 3.5 mph - N/A   Overcast
4:53 AM 34.0 °F 28.0 °F 33.1 °F 96% 29.92 in 1.8 mi ESE 6.9 mph - N/A   Overcast
5:53 AM 34.0 °F 29.8 °F 33.1 °F 96% 29.92 in 1.8 mi East 4.6 mph - N/A   Overcast
6:08 AM 33.8 °F 27.7 °F 33.8 °F 100% 29.89 in 2.0 mi East 6.9 mph - N/A   Overcast
6:31 AM 33.8 °F 28.6 °F 33.8 °F 100% 29.90 in 2.5 mi East 5.8 mph - N/A   Overcast
6:53 AM 34.0 °F 29.8 °F 33.1 °F 96% 29.93 in 2.0 mi East 4.6 mph - N/A   Overcast
7:08 AM 33.8 °F 27.7 °F 33.8 °F 100% 29.90 in 1.8 mi ESE 6.9 mph - N/A   Overcast
7:19 AM 33.8 °F 26.4 °F 33.8 °F 100% 29.90 in 2.0 mi ESE 9.2 mph - N/A   Overcast
7:35 AM 33.8 °F 27.7 °F 33.8 °F 100% 29.91 in 1.8 mi ESE 6.9 mph - N/A   Overcast
7:51 AM 33.8 °F 27.7 °F 33.8 °F 100% 29.91 in 0.8 mi East 6.9 mph - N/A   Overcast
7:53 AM 34.0 °F 27.2 °F 33.1 °F 96% 29.94 in 0.8 mi East 8.1 mph - N/A   Overcast
8:16 AM 33.8 °F 26.4 °F 33.8 °F 100% 29.91 in 1.0 mi ESE 9.2 mph - N/A   Overcast
8:34 AM 33.8 °F 27.7 °F 33.8 °F 100% 29.91 in 0.8 mi ENE 6.9 mph - N/A   Overcast
8:46 AM 33.8 °F 27.7 °F 33.8 °F 100% 29.91 in 0.5 mi East 6.9 mph - N/A Fog Fog
8:53 AM 34.0 °F 28.8 °F 34.0 °F 100% 29.94 in 0.5 mi East 5.8 mph - N/A Fog Fog
9:08 AM 33.8 °F 27.7 °F 33.8 °F 100% 29.91 in 0.8 mi ESE 6.9 mph - N/A   Overcast
9:17 AM 33.8 °F 28.6 °F 33.8 °F 100% 29.91 in 0.5 mi ESE 5.8 mph - N/A Fog Fog
9:38 AM 33.8 °F 27.7 °F 33.8 °F 100% 29.91 in 0.2 mi ESE 6.9 mph - N/A Fog Fog
9:53 AM 34.0 °F 27.2 °F 34.0 °F 100% 29.94 in 0.2 mi ESE 8.1 mph - N/A Fog Fog
10:00 AM 33.8 °F 28.6 °F 33.8 °F 100% 29.91 in 0.5 mi ESE 5.8 mph - N/A Fog Fog
10:08 AM 33.8 °F 27.7 °F 33.8 °F 100% 29.91 in 0.2 mi East 6.9 mph - N/A Fog Fog
10:53 AM 35.1 °F 31.0 °F 35.1 °F 100% 29.93 in 0.2 mi ENE 4.6 mph - N/A Fog Fog
11:04 AM 35.6 °F 29.2 °F 35.6 °F 100% 29.90 in 0.8 mi East 8.1 mph - N/A   Overcast
11:12 AM 35.6 °F 29.2 °F 35.6 °F 100% 29.90 in 1.0 mi East 8.1 mph - N/A   Overcast
11:24 AM 35.6 °F 31.7 °F 35.6 °F 100% 29.89 in 0.8 mi East 4.6 mph - N/A   Overcast
11:53 AM 36.0 °F 30.3 °F 35.1 °F 97% 29.91 in 0.8 mi ESE 6.9 mph - N/A   Overcast
12:13 PM 35.6 °F 30.7 °F 35.6 °F 100% 29.89 in 0.5 mi SE 5.8 mph - N/A Fog Fog
12:46 PM 35.6 °F 29.9 °F 35.6 °F 100% 29.89 in 0.8 mi East 6.9 mph - N/A   Overcast
12:53 PM 36.0 °F 29.6 °F 36.0 °F 100% 29.91 in 1.0 mi East 8.1 mph - 0.00 in Rain Light Rain
1:25 PM 37.4 °F 30.8 °F 35.6 °F 93% 29.87 in 1.0 mi ESE 9.2 mph - 0.00 in   Overcast
1:53 PM 37.0 °F 30.4 °F 36.0 °F 96% 29.88 in 1.5 mi ESE 9.2 mph - 0.00 in   Overcast
2:53 PM 37.9 °F 32.1 °F 37.0 °F 97% 29.85 in 1.2 mi East 8.1 mph - N/A   Overcast
3:38 PM 37.4 °F 31.4 °F 37.4 °F 100% 29.81 in 1.2 mi East 8.1 mph - N/A   Overcast
3:53 PM 37.9 °F 32.1 °F 37.0 °F 97% 29.82 in 1.5 mi East 8.1 mph - N/A   Overcast
4:11 PM 37.4 °F 30.8 °F 37.4 °F 100% 29.79 in 1.8 mi East 9.2 mph - N/A   Overcast
4:53 PM 39.0 °F 34.0 °F 37.9 °F 96% 29.81 in 1.5 mi ESE 6.9 mph - N/A   Overcast
5:53 PM 39.0 °F 32.8 °F 37.9 °F 96% 29.77 in 1.8 mi East 9.2 mph - N/A   Overcast
6:00 PM 39.2 °F 31.6 °F 37.4 °F 93% 29.74 in 2.0 mi East 12.7 mph - N/A   Overcast
6:53 PM 39.0 °F 34.0 °F 37.9 °F 96% 29.77 in 2.0 mi East 6.9 mph - N/A   Overcast
7:28 PM 39.2 °F 35.9 °F 37.4 °F 93% 29.76 in 4.0 mi East 4.6 mph - N/A   Overcast
7:53 PM 39.0 °F 34.0 °F 37.9 °F 96% 29.77 in 3.0 mi ESE 6.9 mph - N/A   Overcast
8:11 PM 39.2 °F 34.2 °F 37.4 °F 93% 29.74 in 2.5 mi ESE 6.9 mph - N/A   Overcast
8:32 PM 39.2 °F 35.0 °F 37.4 °F 93% 29.75 in 3.0 mi ESE 5.8 mph - N/A   Overcast
8:53 PM 39.0 °F 34.0 °F 37.9 °F 96% 29.78 in 3.0 mi ESE 6.9 mph - N/A   Overcast
9:34 PM 39.2 °F 35.9 °F 37.4 °F 93% 29.77 in 2.0 mi ESE 4.6 mph - N/A   Overcast
9:48 PM 39.2 °F 34.2 °F 39.2 °F 100% 29.76 in 1.8 mi ESE 6.9 mph - N/A   Overcast
9:53 PM 39.0 °F 34.0 °F 37.9 °F 96% 29.78 in 1.8 mi ESE 6.9 mph - N/A   Overcast
10:40 PM 39.2 °F - 39.2 °F 100% 29.75 in 1.5 mi Calm Calm - N/A   Overcast
10:53 PM 39.0 °F 35.7 °F 39.0 °F 100% 29.76 in 1.5 mi ESE 4.6 mph - N/A   Overcast
11:53 PM 39.0 °F 36.8 °F 39.0 °F 100% 29.74 in 1.5 mi ESE 3.5 mph - N/A   Overcast